Location: DARK SKY Beskydy - Park tmavé oblohy, www.darkskybeskydy.cz
(49.4926°N, 18.5016°E)
Time: 19:16:09
(UTC+02:00)

PCSat - Pass Details

Date: 09 August 2024
Orbit: 781 x 793 km, 67.1° (Epoch: 08 September)

Event Time Altitude Azimuth Distance (km) Brightness Sun altitude
Rises 01:34:54 0° 326° (NW) 3,301 13.4 -24.0°
Reaches altitude 10° 01:37:27 10° 333° (NNW) 2,369 12.7 -24.0°
Maximum altitude 01:42:38 43° 44° (NE) 1,108 10.7 -23.8°
Drops below altitude 10° 01:47:46 10° 116° (ESE) 2,356 11.9 -23.6°
Enters shadow 01:48:40 - 119° (ESE) 2,680 12.2 -23.5°
